{"data":{"norad_id":47734,"epoch":"2026-09-19T23:17:45.271104Z","epoch_age_seconds":71422,"freshness":"FRESH","line1":"1 47734U 21017N   26262.97066286 -.00000770  00000+0 -13048-4 0  9993","line2":"2 47734  53.1616  19.7540 0001089  94.8330 265.2796 15.31698002307631","mean_motion":15.31698002,"eccentricity":0.0001089,"inclination_deg":53.1616,"raan_deg":19.754,"arg_perigee_deg":94.833,"mean_anomaly_deg":265.2796,"bstar":-1.3048e-5,"rev_number":30763,"period_min":94.013310595152,"perigee_km":470.00010781277,"apogee_km":471.49179451954,"semimajor_km":6848.8829511662,"source":"CELESTRAK","updated_at":"2026-09-20T09:00:38.600582Z"}}